Location: Bottens
(46.6171°N, 6.6605°E)
Time: 18:28:41
(UTC+00:00)

FALCON 9 DEB - Pass Details

Date: 20 June 2021
Orbit: 422 x 432 km, 53.0° (Epoch: 22 July)

Event Time Altitude Azimuth Distance (km) Brightness Sun altitude
Rises 01:28:48 0° 299° (WNW) 2,392 6.9 -15.4°
Reaches altitude 10° 01:30:55 10° 297° (WNW) 1,521 5.9 -15.2°
Maximum altitude 01:34:19 72° 213° (SSW) 449 2.9 -14.9°
Drops below altitude 10° 01:37:41 10° 129° (SE) 1,507 5.8 -14.6°
Sets 01:39:47 0° 127° (SE) 2,368 6.8 -14.5°
